KD8UYA Weather Reports


Display with metric or nautical units.
time (UTC)temp
F
wind
direction
speed
MPH
gust
MPH
rain 1hr
in
rain 24hr
in
rain mn
in
humidity
%
barometer
mb
20260509011531 50 182 0.0 7.0 0.04 0.36 0.36 97 1008.4
20260509010031 50 298 0.0 4.0 0.05 0.35 0.35 97 1008.3
20260509004541 50 265 0.0 5.0 0.05 0.34 0.34 97 1008.2
20260509003034 50 221 1.0 4.0 0.06 0.33 0.33 97 1008.2
20260509001531 50 263 1.0 5.0 0.08 0.32 0.32 97 1008.4
20260509000029 50 240 0.0 5.0 0.08 0.30 0.30 96 1008.4
20260508234528 50 236 0.0 4.0 0.08 0.28 0.28 96 1008.1
20260508233028 50 250 1.0 8.0 0.09 0.27 0.27 96 1008.2
20260508231527 50 259 0.0 0.0 0.10 0.24 0.24 96 1008.1
20260508230026 50 259 2.0 6.0 0.09 0.22 0.22 96 1008.1
20260508224528 50 190 2.0 4.0 0.11 0.21 0.21 95 1008.0
20260508223040 50 245 1.0 4.0 0.08 0.18 0.18 95 1008.4
20260508221525 50 245 1.0 4.0 0.05 0.14 0.14 95 1008.2
20260508220024 50 257 1.0 4.0 0.06 0.13 0.13 94 1008.1
20260508214524 50 241 0.0 3.0 0.05 0.10 0.10 94 1007.6
20260508213024 50 217 1.0 5.0 0.06 0.10 0.10 94 1007.8
20260508211518 50 254 1.0 6.0 0.05 0.09 0.09 94 1008.3
20260508210024 50 269 2.0 4.0 0.04 0.07 0.07 93 1008.5
20260508204516 50 252 3.0 8.0 0.02 0.05 0.05 92 1008.6
20260508203013 51 236 2.0 10.0 0.01 0.04 0.04 90 1008.8
20260508201515 52 241 4.0 15.0 0.01 0.04 0.04 89 1009.3
20260508200013 53 210 3.0 14.0 0.00 0.03 0.03 84 1009.3
20260508194509 55 217 5.0 14.0 0.00 0.03 0.03 81 1009.3
20260508193009 55 284 6.0 12.0 0.00 0.03 0.03 79 1009.2
20260508191507 55 239 3.0 9.0 0.00 0.03 0.03 80 1009.2
20260508190008 55 319 3.0 10.0 0.00 0.03 0.03 80 1009.3
20260508184509 55 286 4.0 12.0 0.00 0.03 0.03 79 1009.4
20260508183004 55 269 5.0 15.0 0.00 0.03 0.03 80 1009.6
20260508181512 54 235 6.0 12.0 0.00 0.03 0.03 82 1009.7
20260508180101 54 263 4.0 14.0 0.00 0.03 0.03 82 1010.0
20260508174600 54 222 4.0 15.0 0.00 0.03 0.03 81 1010.3
20260508173056 53 240 4.0 10.0 0.00 0.03 0.03 82 1010.5
20260508171556 54 262 5.0 16.0 0.00 0.03 0.03 77 1010.4
20260508170055 55 246 6.0 14.0 0.00 0.03 0.03 74 1010.5
20260508164556 55 263 5.0 13.0 0.00 0.03 0.03 74 1010.4
20260508163054 56 252 4.0 13.0 0.00 0.03 0.03 72 1010.4
20260508161558 56 219 5.0 12.0 0.00 0.03 0.03 73 1010.4
20260508160052 56 254 6.0 13.0 0.00 0.03 0.03 73 1010.5
20260508154606 55 281 3.0 9.0 0.00 0.03 0.03 75 1010.5
20260508153046 55 327 5.0 11.0 0.00 0.03 0.03 74 1010.4
20260508151545 55 317 5.0 14.0 0.00 0.03 0.03 75 1010.7
20260508150055 54 241 4.0 10.0 0.00 0.03 0.03 75 1010.6
20260508144541 54 291 1.0 11.0 0.00 0.03 0.03 76 1010.6
20260508143053 53 234 5.0 11.0 0.00 0.03 0.03 75 1010.7
20260508141537 53 300 2.0 12.0 0.00 0.03 0.03 77 1010.6
20260508140042 52 281 3.0 9.0 0.00 0.03 0.03 78 1010.8
20260508134533 51 249 5.0 12.0 0.00 0.03 0.03 77 1010.9
20260508133031 51 261 3.0 10.0 0.00 0.03 0.03 79 1011.0
20260508131529 50 289 3.0 9.0 0.00 0.03 0.03 79 1011.0
20260508130127 50 331 4.0 11.0 0.00 0.03 0.03 78 1011.2
20260508124524 49 256 4.0 9.0 0.00 0.03 0.03 80 1011.1
20260508123023 48 262 2.0 8.0 0.00 0.03 0.03 82 1011.1
20260508121521 48 271 3.0 9.0 0.00 0.03 0.03 84 1010.9
20260508120020 47 258 2.0 8.0 0.00 0.03 0.03 86 1010.8
20260508114519 47 274 1.0 6.0 0.01 0.03 0.03 87 1010.5
20260508113019 46 271 1.0 6.0 0.01 0.03 0.03 88 1010.6
20260508111519 46 238 1.0 7.0 0.03 0.03 0.03 87 1010.4
20260508110017 46 253 2.0 10.0 0.03 0.03 0.03 88 1010.5
20260508104516 46 251 3.0 9.0 0.02 0.02 0.02 87 1010.3
20260508103019 46 299 2.0 14.0 0.02 0.02 0.02 86 1010.4
20260508101512 47 276 2.0 7.0 0.00 0.00 0.00 82 1010.4
20260508100020 46 260 2.0 8.0 0.00 0.00 0.00 83 1010.2
20260508094510 45 251 1.0 6.0 0.00 0.00 0.00 85 1010.2
20260508093010 45 253 1.0 4.0 0.00 0.00 0.00 85 1010.4
20260508091506 45 270 3.0 8.0 0.00 0.00 0.00 84 1010.6
20260508090006 45 280 3.0 7.0 0.00 0.00 0.00 84 1010.6
20260508084504 45 280 2.0 8.0 0.00 0.00 0.00 84 1010.7
20260508083003 45 240 1.0 9.0 0.00 0.00 0.00 85 1010.7
20260508081504 45 246 2.0 7.0 0.00 0.00 0.00 84 1010.6
20260508080112 46 254 1.0 9.0 0.00 0.00 0.00 84 1010.7
20260508074604 46 271 2.0 9.0 0.00 0.00 0.00 83 1010.9
20260508073058 46 257 4.0 10.0 0.00 0.00 0.00 82 1010.8
20260508071552 47 241 3.0 10.0 0.00 0.00 0.00 80 1010.9
20260508070052 48 273 7.0 17.0 0.00 0.00 0.00 76 1011.0
20260508064555 48 238 5.0 14.0 0.00 0.00 0.00 74 1010.9
20260508063048 47 277 3.0 7.0 0.00 0.00 0.00 74 1011.0
20260508061545 47 254 2.0 5.0 0.00 0.00 0.00 75 1011.1
20260508060042 47 269 1.0 4.0 0.00 0.00 0.00 76 1011.1
20260508054546 47 261 0.0 3.0 0.00 0.00 0.00 76 1011.1
20260508053041 47 250 0.0 3.0 0.00 0.00 0.00 75 1011.4
20260508051539 47 254 1.0 3.0 0.00 0.00 0.00 74 1011.6
20260508050049 48 259 0.0 4.0 0.00 0.00 0.00 74 1011.5
20260508044533 48 262 1.0 6.0 0.00 0.00 0.00 74 1011.6
20260508043031 48 263 1.0 6.0 0.00 0.00 0.00 73 1011.5
20260508041529 48 282 2.0 7.0 0.00 0.00 0.00 73 1011.6
20260508040041 47 260 2.0 6.0 0.00 0.00 0.00 73 1011.6
20260508034537 47 272 2.0 7.0 0.00 0.00 0.00 72 1011.7
20260508033025 47 266 1.0 7.0 0.00 0.00 0.00 73 1011.8
20260508031524 45 225 1.0 4.0 0.00 0.00 0.00 76 1011.7
20260508030025 43 299 0.0 0.0 0.00 0.00 0.00 81 1011.8
20260508024526 43 299 0.0 0.0 0.00 0.00 0.00 81 1011.8
20260508023024 43 299 0.0 0.0 0.00 0.00 0.00 79 1011.7
20260508021523 44 299 0.0 0.0 0.00 0.00 0.00 78 1011.5
20260508020023 44 299 0.0 0.0 0.00 0.00 0.00 77 1011.5
20260508014522 44 299 0.0 0.0 0.00 0.00 0.00 74 1011.3
20260508013021 45 299 0.0 0.0 0.00 0.00 0.00 72 1011.4